Time,TemperatureF,DewpointF,PressureIn,WindDirection,WindDirectionDegrees,WindSpeedMPH,WindSpeedGustMPH,Humidity,HourlyPrecipIn,Conditions,Clouds,dailyrainin,SoftwareType,DateUTC
2013-02-21 00:02:00,18.3,10.8,31.24,SE,135,1.0,4.0,72,0.00,,,0.00,meteohub,2013-02-21 07:02:00,
2013-02-21 00:07:00,18.3,10.8,31.24,South,180,2.0,4.0,72,0.00,,,0.00,meteohub,2013-02-21 07:07:00,
2013-02-21 00:12:00,18.3,10.8,31.25,NE,45,1.0,3.0,72,0.00,,,0.00,meteohub,2013-02-21 07:12:00,
2013-02-21 00:17:00,18.1,10.6,31.25,ESE,113,1.0,2.0,72,0.00,,,0.00,meteohub,2013-02-21 07:17:00,
2013-02-21 00:22:00,18.1,10.6,31.24,SW,225,2.0,5.0,72,0.00,,,0.00,meteohub,2013-02-21 07:22:00,
2013-02-21 00:27:00,18.1,10.6,31.24,South,180,0.0,5.0,72,0.00,,,0.00,meteohub,2013-02-21 07:27:00,
2013-02-21 00:32:00,18.1,10.6,31.24,South,180,2.0,5.0,72,0.00,,,0.00,meteohub,2013-02-21 07:32:00,
2013-02-21 00:37:00,18.1,10.6,31.25,SE,135,2.0,4.0,72,0.00,,,0.00,meteohub,2013-02-21 07:37:00,
2013-02-21 00:42:00,18.0,10.4,31.24,South,180,2.0,3.0,72,0.00,,,0.00,meteohub,2013-02-21 07:42:00,
2013-02-21 00:47:00,18.0,10.4,31.25,South,180,0.0,3.0,72,0.00,,,0.00,meteohub,2013-02-21 07:47:00,
2013-02-21 00:52:00,18.0,10.2,31.25,East,90,0.0,2.0,71,0.00,,,0.00,meteohub,2013-02-21 07:52:00,
2013-02-21 00:57:00,18.0,10.2,31.25,SE,135,0.0,2.0,71,0.00,,,0.00,meteohub,2013-02-21 07:57:00,
2013-02-21 01:02:00,18.0,10.2,31.24,SE,135,0.0,0.0,71,0.00,,,0.00,meteohub,2013-02-21 08:02:00,
2013-02-21 01:07:00,18.0,10.2,31.24,SE,135,0.0,0.0,71,0.00,,,0.00,meteohub,2013-02-21 08:07:00,
2013-02-21 01:12:00,17.8,10.0,31.25,East,90,0.0,0.0,71,0.00,,,0.00,meteohub,2013-02-21 08:12:00,
2013-02-21 01:17:00,17.6,9.9,31.25,North,0,0.0,0.0,71,0.00,,,0.00,meteohub,2013-02-21 08:17:00,
2013-02-21 01:22:00,17.6,9.9,31.25,NE,45,0.0,0.0,71,0.00,,,0.00,meteohub,2013-02-21 08:22:00,
2013-02-21 01:27:00,17.4,9.9,31.25,North,0,0.0,0.0,72,0.00,,,0.00,meteohub,2013-02-21 08:27:00,
2013-02-21 01:32:00,17.2,9.9,31.25,East,90,0.0,0.0,72,0.00,,,0.00,meteohub,2013-02-21 08:32:00,
2013-02-21 01:37:00,17.2,9.9,31.25,East,90,0.0,0.0,72,0.00,,,0.00,meteohub,2013-02-21 08:37:00,
2013-02-21 01:42:00,17.1,9.7,31.25,North,0,0.0,0.0,72,0.00,,,0.00,meteohub,2013-02-21 08:42:00,
2013-02-21 01:47:00,17.1,9.7,31.25,NW,315,0.0,0.0,72,0.00,,,0.00,meteohub,2013-02-21 08:47:00,
2013-02-21 01:52:00,16.9,9.5,31.25,NW,315,0.0,0.0,72,0.00,,,0.00,meteohub,2013-02-21 08:52:00,
2013-02-21 01:57:00,16.9,9.5,31.25,NW,315,0.0,0.0,72,0.00,,,0.00,meteohub,2013-02-21 08:57:00,
2013-02-21 02:03:00,16.9,9.5,31.24,NW,315,0.0,0.0,72,0.00,,,0.00,meteohub,2013-02-21 09:03:00,
2013-02-21 02:08:00,16.7,9.3,31.25,NW,315,0.0,0.0,72,0.00,,,0.00,meteohub,2013-02-21 09:08:00,
2013-02-21 02:14:00,16.7,9.3,31.24,West,270,0.0,0.0,72,0.00,,,0.00,meteohub,2013-02-21 09:14:00,
2013-02-21 02:19:00,16.7,9.3,31.24,NW,315,0.0,0.0,72,0.00,,,0.00,meteohub,2013-02-21 09:19:00,
2013-02-21 02:25:00,16.5,9.1,31.25,NW,315,0.0,0.0,72,0.00,,,0.00,meteohub,2013-02-21 09:25:00,
2013-02-21 02:31:00,16.5,9.1,31.24,NW,315,0.0,0.0,72,0.00,,,0.00,meteohub,2013-02-21 09:31:00,
2013-02-21 02:37:00,16.5,9.1,31.24,West,270,0.0,0.0,72,0.00,,,0.00,meteohub,2013-02-21 09:37:00,
2013-02-21 02:42:00,16.3,9.0,31.25,West,270,0.0,0.0,72,0.00,,,0.00,meteohub,2013-02-21 09:42:00,
2013-02-21 02:47:00,16.3,9.0,31.24,North,0,0.0,0.0,72,0.00,,,0.00,meteohub,2013-02-21 09:47:00,
2013-02-21 02:52:00,16.3,8.6,31.24,NW,315,0.0,0.0,71,0.00,,,0.00,meteohub,2013-02-21 09:52:00,
2013-02-21 02:57:00,16.2,8.4,31.24,West,270,0.0,0.0,71,0.00,,,0.00,meteohub,2013-02-21 09:57:00,
2013-02-21 03:02:00,16.2,8.4,31.24,West,270,0.0,0.0,71,0.00,,,0.00,meteohub,2013-02-21 10:02:00,
2013-02-21 03:07:00,16.2,8.4,31.24,West,270,0.0,0.0,71,0.00,,,0.00,meteohub,2013-02-21 10:07:00,
2013-02-21 03:12:00,16.2,8.4,31.24,West,270,0.0,0.0,71,0.00,,,0.00,meteohub,2013-02-21 10:12:00,
2013-02-21 03:17:00,16.2,8.4,31.25,SW,225,0.0,0.0,71,0.00,,,0.00,meteohub,2013-02-21 10:17:00,
2013-02-21 03:22:00,16.0,8.2,31.24,West,270,0.0,0.0,71,0.00,,,0.00,meteohub,2013-02-21 10:22:00,
2013-02-21 03:27:00,16.0,8.2,31.25,NW,315,0.0,0.0,71,0.00,,,0.00,meteohub,2013-02-21 10:27:00,
2013-02-21 03:32:00,16.0,8.2,31.25,West,270,0.0,0.0,71,0.00,,,0.00,meteohub,2013-02-21 10:32:00,
2013-02-21 03:37:00,16.0,7.9,31.25,West,270,0.0,0.0,70,0.00,,,0.00,meteohub,2013-02-21 10:37:00,
2013-02-21 03:42:00,16.0,7.9,31.25,West,270,0.0,0.0,70,0.00,,,0.00,meteohub,2013-02-21 10:42:00,
2013-02-21 03:47:00,16.0,7.9,31.25,SW,225,0.0,0.0,70,0.00,,,0.00,meteohub,2013-02-21 10:47:00,
2013-02-21 03:53:00,16.0,7.9,31.25,West,270,0.0,0.0,70,0.00,,,0.00,meteohub,2013-02-21 10:53:00,
2013-02-21 03:59:00,16.0,7.9,31.25,West,270,0.0,0.0,70,0.00,,,0.00,meteohub,2013-02-21 10:59:00,
2013-02-21 04:04:00,16.0,7.9,31.25,North,0,0.0,0.0,70,0.00,,,0.00,meteohub,2013-02-21 11:04:00,
2013-02-21 04:10:00,16.0,7.9,31.25,NW,315,0.0,0.0,70,0.00,,,0.00,meteohub,2013-02-21 11:10:00,
2013-02-21 04:15:00,16.0,7.9,31.25,SW,225,0.0,0.0,70,0.00,,,0.00,meteohub,2013-02-21 11:15:00,
2013-02-21 04:21:00,15.8,7.7,31.25,West,270,0.0,0.0,70,0.00,,,0.00,meteohub,2013-02-21 11:21:00,
2013-02-21 04:26:00,15.8,7.7,31.25,West,270,0.0,0.0,70,0.00,,,0.00,meteohub,2013-02-21 11:26:00,
2013-02-21 04:32:00,15.6,7.9,31.25,West,270,0.0,0.0,71,0.00,,,0.00,meteohub,2013-02-21 11:32:00,
2013-02-21 04:37:00,15.6,7.9,31.26,NW,315,0.0,0.0,71,0.00,,,0.00,meteohub,2013-02-21 11:37:00,
2013-02-21 04:42:00,15.4,7.7,31.25,NW,315,0.0,0.0,71,0.00,,,0.00,meteohub,2013-02-21 11:42:00,
2013-02-21 04:47:00,15.3,7.2,31.26,SW,225,0.0,0.0,70,0.00,,,0.00,meteohub,2013-02-21 11:47:00,
2013-02-21 04:53:00,15.1,7.0,31.26,West,270,0.0,0.0,70,0.00,,,0.00,meteohub,2013-02-21 11:53:00,
2013-02-21 04:58:00,15.1,7.0,31.26,North,0,0.0,0.0,70,0.00,,,0.00,meteohub,2013-02-21 11:58:00,
2013-02-21 05:03:00,15.1,7.0,31.26,West,270,0.0,0.0,70,0.00,,,0.00,meteohub,2013-02-21 12:03:00,
2013-02-21 05:09:00,14.7,6.8,31.26,NW,315,0.0,0.0,70,0.00,,,0.00,meteohub,2013-02-21 12:09:00,
2013-02-21 05:14:00,14.7,6.8,31.26,SW,225,0.0,0.0,70,0.00,,,0.00,meteohub,2013-02-21 12:14:00,
2013-02-21 05:20:00,14.5,6.3,31.26,West,270,0.0,0.0,69,0.00,,,0.00,meteohub,2013-02-21 12:20:00,
2013-02-21 05:25:00,14.5,6.3,31.26,NW,315,0.0,0.0,69,0.00,,,0.00,meteohub,2013-02-21 12:25:00,
2013-02-21 05:31:00,14.4,6.1,31.26,SW,225,0.0,0.0,69,0.00,,,0.00,meteohub,2013-02-21 12:31:00,
2013-02-21 05:36:00,14.4,6.1,31.26,SW,225,0.0,0.0,69,0.00,,,0.00,meteohub,2013-02-21 12:36:00,
2013-02-21 05:42:00,14.2,5.9,31.27,West,270,0.0,0.0,69,0.00,,,0.00,meteohub,2013-02-21 12:42:00,
2013-02-21 05:47:00,14.2,5.9,31.27,SW,225,0.0,0.0,69,0.00,,,0.00,meteohub,2013-02-21 12:47:00,
2013-02-21 05:52:00,14.2,5.9,31.27,NW,315,0.0,0.0,69,0.00,,,0.00,meteohub,2013-02-21 12:52:00,
2013-02-21 05:57:00,14.0,5.7,31.27,West,270,0.0,0.0,69,0.00,,,0.00,meteohub,2013-02-21 12:57:00,
2013-02-21 06:02:00,14.0,5.7,31.27,WSW,248,0.0,0.0,69,0.00,,,0.00,meteohub,2013-02-21 13:02:00,
2013-02-21 06:07:00,14.0,5.7,31.27,West,270,0.0,0.0,69,0.00,,,0.00,meteohub,2013-02-21 13:07:00,
2013-02-21 06:13:00,14.0,5.7,31.27,West,270,0.0,0.0,69,0.00,,,0.00,meteohub,2013-02-21 13:13:00,
2013-02-21 06:18:00,14.0,5.7,31.27,NW,315,0.0,0.0,69,0.00,,,0.00,meteohub,2013-02-21 13:18:00,
2013-02-21 06:23:00,14.0,5.7,31.27,SW,225,0.0,0.0,69,0.00,,,0.00,meteohub,2013-02-21 13:23:00,
2013-02-21 06:28:00,14.0,5.7,31.27,SW,225,0.0,0.0,69,0.00,,,0.00,meteohub,2013-02-21 13:28:00,
2013-02-21 06:33:00,13.8,5.9,31.27,West,270,0.0,0.0,70,0.00,,,0.00,meteohub,2013-02-21 13:33:00,
2013-02-21 06:38:00,14.0,5.7,31.27,SW,225,0.0,0.0,69,0.00,,,0.00,meteohub,2013-02-21 13:38:00,
2013-02-21 06:44:00,14.0,5.7,31.28,West,270,0.0,0.0,69,0.00,,,0.00,meteohub,2013-02-21 13:44:00,
2013-02-21 06:50:00,14.0,6.1,31.28,West,270,0.0,0.0,70,0.00,,,0.00,meteohub,2013-02-21 13:50:00,
2013-02-21 06:55:00,14.2,6.3,31.28,NW,315,0.0,0.0,70,0.00,,,0.00,meteohub,2013-02-21 13:55:00,
2013-02-21 07:00:00,14.4,6.4,31.28,West,270,0.0,0.0,70,0.00,,,0.00,meteohub,2013-02-21 14:00:00,
2013-02-21 07:06:00,14.4,6.4,31.28,West,270,0.0,0.0,70,0.00,,,0.00,meteohub,2013-02-21 14:06:00,
2013-02-21 07:12:00,14.5,6.6,31.29,SW,225,0.0,0.0,70,0.00,,,0.00,meteohub,2013-02-21 14:12:00,
2013-02-21 07:17:00,14.5,6.6,31.29,SW,225,0.0,0.0,70,0.00,,,0.00,meteohub,2013-02-21 14:17:00,
2013-02-21 07:22:00,14.7,6.8,31.29,SW,225,0.0,0.0,70,0.00,,,0.00,meteohub,2013-02-21 14:22:00,
2013-02-21 07:27:00,14.9,7.0,31.29,NW,315,0.0,0.0,70,0.00,,,0.00,meteohub,2013-02-21 14:27:00,
2013-02-21 07:32:00,15.3,7.2,31.29,NW,315,0.0,0.0,70,0.00,,,0.00,meteohub,2013-02-21 14:32:00,
2013-02-21 07:37:00,15.4,7.2,31.29,SW,225,0.0,0.0,69,0.00,,,0.00,meteohub,2013-02-21 14:37:00,
2013-02-21 07:42:00,15.6,7.3,31.30,SW,225,0.0,0.0,69,0.00,,,0.00,meteohub,2013-02-21 14:42:00,
2013-02-21 07:47:00,15.8,6.8,31.30,North,0,0.0,0.0,67,0.00,,,0.00,meteohub,2013-02-21 14:47:00,
2013-02-21 07:52:00,16.0,7.0,31.30,West,270,0.0,0.0,67,0.00,,,0.00,meteohub,2013-02-21 14:52:00,
2013-02-21 07:57:00,16.0,7.0,31.30,NW,315,0.0,0.0,67,0.00,,,0.00,meteohub,2013-02-21 14:57:00,
2013-02-21 08:02:00,16.2,6.8,31.31,West,270,0.0,0.0,66,0.00,,,0.00,meteohub,2013-02-21 15:02:00,
2013-02-21 08:07:00,16.3,7.0,31.31,SW,225,0.0,0.0,66,0.00,,,0.00,meteohub,2013-02-21 15:07:00,
2013-02-21 08:12:00,16.7,7.0,31.31,SW,225,0.0,0.0,65,0.00,,,0.00,meteohub,2013-02-21 15:12:00,
2013-02-21 08:17:00,16.9,7.2,31.31,WSW,248,0.0,0.0,65,0.00,,,0.00,meteohub,2013-02-21 15:17:00,
2013-02-21 08:22:00,17.1,7.3,31.31,NW,315,0.0,0.0,65,0.00,,,0.00,meteohub,2013-02-21 15:22:00,
2013-02-21 08:27:00,17.2,7.2,31.31,West,270,0.0,0.0,64,0.00,,,0.00,meteohub,2013-02-21 15:27:00,
2013-02-21 08:32:00,17.4,7.3,31.31,West,270,0.0,0.0,64,0.00,,,0.00,meteohub,2013-02-21 15:32:00,
2013-02-21 08:37:00,17.6,6.8,31.31,West,270,0.0,0.0,62,0.00,,,0.00,meteohub,2013-02-21 15:37:00,
2013-02-21 08:42:00,18.0,6.8,31.32,SW,225,0.0,0.0,61,0.00,,,0.00,meteohub,2013-02-21 15:42:00,
2013-02-21 08:47:00,18.1,7.0,31.32,SW,225,0.0,0.0,61,0.00,,,0.00,meteohub,2013-02-21 15:47:00,
2013-02-21 08:52:00,18.5,7.3,31.32,SW,225,0.0,0.0,61,0.00,,,0.00,meteohub,2013-02-21 15:52:00,
2013-02-21 08:57:00,18.9,7.7,31.32,North,0,0.0,0.0,61,0.00,,,0.00,meteohub,2013-02-21 15:57:00,
2013-02-21 09:02:00,19.2,8.1,31.32,NW,315,0.0,0.0,61,0.00,,,0.00,meteohub,2013-02-21 16:02:00,
2013-02-21 09:07:00,19.2,8.1,31.32,NW,315,0.0,0.0,61,0.00,,,0.00,meteohub,2013-02-21 16:07:00,
2013-02-21 09:12:00,19.9,10.0,31.32,NE,45,0.0,0.0,65,0.00,,,0.00,meteohub,2013-02-21 16:12:00,
2013-02-21 09:17:00,20.5,10.6,31.32,East,90,0.0,0.0,65,0.00,,,0.00,meteohub,2013-02-21 16:17:00,
2013-02-21 09:22:00,20.8,10.9,31.32,West,270,0.0,0.0,65,0.00,,,0.00,meteohub,2013-02-21 16:22:00,
2013-02-21 09:27:00,21.0,10.8,31.32,SSE,158,0.0,0.0,64,0.00,,,0.00,meteohub,2013-02-21 16:27:00,
2013-02-21 09:32:00,21.6,10.9,31.32,West,270,0.0,1.0,63,0.00,,,0.00,meteohub,2013-02-21 16:32:00,
2013-02-21 09:37:00,21.9,11.3,31.32,North,0,0.0,1.0,63,0.00,,,0.00,meteohub,2013-02-21 16:37:00,
2013-02-21 09:42:00,23.0,12.2,31.33,NE,45,0.0,2.0,63,0.00,,,0.00,meteohub,2013-02-21 16:42:00,
2013-02-21 09:47:00,23.7,12.2,31.32,East,90,0.0,2.0,61,0.00,,,0.00,meteohub,2013-02-21 16:47:00,
2013-02-21 09:52:00,24.8,12.6,31.33,NW,315,0.0,2.0,59,0.00,,,0.00,meteohub,2013-02-21 16:52:00,
2013-02-21 09:57:00,24.8,11.7,31.32,North,0,0.0,1.0,57,0.00,,,0.00,meteohub,2013-02-21 16:57:00,
2013-02-21 10:03:00,24.3,11.7,31.32,West,270,0.0,1.0,58,0.00,,,0.00,meteohub,2013-02-21 17:03:00,
2013-02-21 10:08:00,23.7,10.8,31.32,NE,45,1.0,2.0,57,0.00,,,0.00,meteohub,2013-02-21 17:08:00,
2013-02-21 10:14:00,23.7,10.8,31.33,North,0,1.0,2.0,57,0.00,,,0.00,meteohub,2013-02-21 17:14:00,
2013-02-21 10:19:00,23.5,10.6,31.32,NE,45,1.0,6.0,57,0.00,,,0.00,meteohub,2013-02-21 17:19:00,
2013-02-21 10:24:00,23.7,10.8,31.33,North,0,1.0,6.0,57,0.00,,,0.00,meteohub,2013-02-21 17:24:00,
2013-02-21 10:30:00,24.4,10.9,31.33,NW,315,2.0,4.0,56,0.00,,,0.00,meteohub,2013-02-21 17:30:00,
2013-02-21 10:36:00,25.5,10.8,31.33,SW,225,1.0,4.0,53,0.00,,,0.00,meteohub,2013-02-21 17:36:00,
2013-02-21 10:41:00,26.6,11.3,31.33,North,0,3.0,4.0,52,0.00,,,0.00,meteohub,2013-02-21 17:41:00,
2013-02-21 10:46:00,26.2,10.9,31.33,North,0,2.0,4.0,52,0.00,,,0.00,meteohub,2013-02-21 17:46:00,
2013-02-21 10:52:00,25.7,10.6,31.33,NW,315,2.0,4.0,52,0.00,,,0.00,meteohub,2013-02-21 17:52:00,
2013-02-21 10:57:00,25.7,10.6,31.33,SW,225,1.0,4.0,52,0.00,,,0.00,meteohub,2013-02-21 17:57:00,
2013-02-21 11:02:00,25.9,10.8,31.33,SE,135,2.0,4.0,52,0.00,,,0.00,meteohub,2013-02-21 18:02:00,
2013-02-21 11:07:00,25.9,10.8,31.33,SE,135,2.0,4.0,52,0.00,,,0.00,meteohub,2013-02-21 18:07:00,
2013-02-21 11:12:00,29.3,14.4,31.33,North,0,4.0,4.0,53,0.00,,,0.00,meteohub,2013-02-21 18:12:00,
2013-02-21 11:17:00,30.4,14.9,31.33,NE,45,5.0,5.0,52,0.00,,,0.00,meteohub,2013-02-21 18:17:00,
2013-02-21 11:27:00,31.6,14.7,31.33,NW,315,2.0,7.0,49,0.01,,,0.01,meteohub,2013-02-21 18:27:00,
2013-02-21 11:32:00,32.0,14.0,31.33,NE,45,2.0,7.0,47,0.01,,,0.01,meteohub,2013-02-21 18:32:00,
2013-02-21 11:37:00,32.2,14.2,31.32,North,0,5.0,7.0,47,0.01,,,0.01,meteohub,2013-02-21 18:37:00,
2013-02-21 11:42:00,30.2,12.9,31.33,NW,315,4.0,6.0,48,0.01,,,0.01,meteohub,2013-02-21 18:42:00,
2013-02-21 11:47:00,28.6,11.8,31.32,North,0,4.0,6.0,49,0.02,,,0.02,meteohub,2013-02-21 18:47:00,
2013-02-21 11:52:00,29.1,13.6,31.32,NNW,338,4.0,6.0,52,0.02,,,0.02,meteohub,2013-02-21 18:52:00,
2013-02-21 11:58:00,29.1,13.3,31.32,East,90,3.0,6.0,51,0.04,,,0.04,meteohub,2013-02-21 18:58:00,
2013-02-21 12:03:00,28.8,12.9,31.32,East,90,5.0,6.0,51,0.04,,,0.04,meteohub,2013-02-21 19:03:00,
2013-02-21 12:08:00,28.0,10.9,31.32,North,0,4.0,7.0,48,0.04,,,0.04,meteohub,2013-02-21 19:08:00,
2013-02-21 12:13:00,28.9,13.1,31.32,NW,315,2.0,7.0,51,0.04,,,0.04,meteohub,2013-02-21 19:13:00,
2013-02-21 12:19:00,32.4,15.3,31.32,West,270,7.0,7.0,49,0.04,,,0.04,meteohub,2013-02-21 19:19:00,
2013-02-21 12:25:00,34.7,16.5,31.32,North,0,4.0,7.0,47,0.04,,,0.04,meteohub,2013-02-21 19:25:00,
2013-02-21 12:30:00,33.8,14.7,31.32,North,0,4.0,7.0,45,0.04,,,0.05,meteohub,2013-02-21 19:30:00,
2013-02-21 12:36:00,32.4,13.5,31.31,NNW,338,7.0,7.0,45,0.04,,,0.05,meteohub,2013-02-21 19:36:00,
2013-02-21 12:41:00,30.7,12.9,31.31,West,270,4.0,10.0,47,0.02,,,0.05,meteohub,2013-02-21 19:41:00,
2013-02-21 12:47:00,31.1,13.6,31.32,North,0,4.0,10.0,48,0.02,,,0.05,meteohub,2013-02-21 19:47:00,
2013-02-21 12:52:00,30.2,12.9,31.31,North,0,2.0,10.0,48,0.02,,,0.05,meteohub,2013-02-21 19:52:00,
2013-02-21 12:57:00,29.3,11.1,31.31,NW,315,8.0,9.0,46,0.01,,,0.05,meteohub,2013-02-21 19:57:00,
2013-02-21 13:02:00,28.8,10.0,31.31,NW,315,8.0,9.0,45,0.02,,,0.06,meteohub,2013-02-21 20:02:00,
2013-02-21 13:07:00,28.8,10.0,31.31,NW,315,8.0,9.0,45,0.02,,,0.06,meteohub,2013-02-21 20:07:00,
2013-02-21 13:12:00,28.6,8.4,31.31,SW,225,4.0,8.0,42,0.02,,,0.06,meteohub,2013-02-21 20:12:00,
2013-02-21 13:17:00,28.9,8.8,31.32,NW,315,9.0,9.0,42,0.02,,,0.06,meteohub,2013-02-21 20:17:00,
2013-02-21 13:22:00,28.9,8.2,31.32,NW,315,4.0,9.0,41,0.01,,,0.06,meteohub,2013-02-21 20:22:00,
2013-02-21 13:27:00,28.6,7.3,31.32,NE,45,7.0,9.0,40,0.01,,,0.06,meteohub,2013-02-21 20:27:00,
2013-02-21 13:32:00,28.4,8.2,31.31,North,0,2.0,9.0,42,0.01,,,0.06,meteohub,2013-02-21 20:32:00,
2013-02-21 13:37:00,28.0,6.3,31.31,NW,315,8.0,8.0,39,0.02,,,0.07,meteohub,2013-02-21 20:37:00,
2013-02-21 13:42:00,27.5,6.8,31.32,North,0,4.0,10.0,41,0.02,,,0.07,meteohub,2013-02-21 20:42:00,
2013-02-21 13:47:00,27.7,5.4,31.32,NE,45,2.0,10.0,38,0.02,,,0.07,meteohub,2013-02-21 20:47:00,
2013-02-21 13:52:00,28.6,9.9,31.32,NNW,338,9.0,10.0,45,0.02,,,0.07,meteohub,2013-02-21 20:52:00,
2013-02-21 13:57:00,27.5,7.3,31.32,NE,45,4.0,9.0,42,0.01,,,0.07,meteohub,2013-02-21 20:57:00,
2013-02-21 14:02:00,26.8,8.2,31.32,NW,315,7.0,9.0,45,0.01,,,0.07,meteohub,2013-02-21 21:02:00,
2013-02-21 14:07:00,27.1,10.0,31.32,NW,315,4.0,9.0,48,0.01,,,0.07,meteohub,2013-02-21 21:07:00,
2013-02-21 14:12:00,27.3,10.8,31.32,SE,135,8.0,8.0,49,0.01,,,0.07,meteohub,2013-02-21 21:12:00,
2013-02-21 14:17:00,27.1,10.6,31.33,NNE,23,4.0,8.0,49,0.01,,,0.07,meteohub,2013-02-21 21:17:00,
2013-02-21 14:22:00,28.4,11.7,31.32,South,180,4.0,8.0,49,0.01,,,0.07,meteohub,2013-02-21 21:22:00,
2013-02-21 14:27:00,30.7,13.3,31.32,NW,315,4.0,8.0,48,0.01,,,0.07,meteohub,2013-02-21 21:27:00,
2013-02-21 14:32:00,31.3,11.8,31.33,NE,45,3.0,11.0,44,0.01,,,0.07,meteohub,2013-02-21 21:32:00,
2013-02-21 14:37:00,32.0,10.4,31.33,North,0,4.0,11.0,40,0.00,,,0.07,meteohub,2013-02-21 21:37:00,
2013-02-21 14:43:00,34.0,9.9,31.33,NW,315,7.0,11.0,36,0.00,,,0.07,meteohub,2013-02-21 21:43:00,
2013-02-21 14:49:00,34.7,9.1,31.33,North,0,5.0,9.0,34,0.00,,,0.07,meteohub,2013-02-21 21:49:00,
2013-02-21 14:54:00,34.5,7.0,31.33,ENE,68,8.0,8.0,31,0.00,,,0.07,meteohub,2013-02-21 21:54:00,
2013-02-21 15:00:00,34.0,7.2,31.33,West,270,5.0,8.0,32,0.01,,,0.08,meteohub,2013-02-21 22:00:00,
2013-02-21 15:06:00,34.0,7.2,31.33,West,270,5.0,8.0,32,0.01,,,0.08,meteohub,2013-02-21 22:06:00,
2013-02-21 15:11:00,34.3,6.1,31.33,SSW,203,4.0,8.0,30,0.01,,,0.08,meteohub,2013-02-21 22:11:00,
2013-02-21 15:16:00,34.2,7.3,31.33,SW,225,5.0,7.0,32,0.01,,,0.08,meteohub,2013-02-21 22:16:00,
2013-02-21 15:22:00,33.8,4.8,31.33,SW,225,1.0,7.0,29,0.01,,,0.08,meteohub,2013-02-21 22:22:00,
2013-02-21 15:27:00,34.0,6.4,31.33,West,270,4.0,7.0,31,0.02,,,0.09,meteohub,2013-02-21 22:27:00,
2013-02-21 15:32:00,33.8,6.4,31.33,West,270,6.0,7.0,31,0.02,,,0.09,meteohub,2013-02-21 22:32:00,
2013-02-21 15:37:00,33.1,6.4,31.34,West,270,7.0,7.0,32,0.02,,,0.09,meteohub,2013-02-21 22:37:00,
2013-02-21 15:42:00,32.2,5.5,31.34,NW,315,4.0,8.0,32,0.02,,,0.09,meteohub,2013-02-21 22:42:00,
2013-02-21 15:47:00,31.3,6.8,31.34,West,270,2.0,8.0,35,0.02,,,0.09,meteohub,2013-02-21 22:47:00,
2013-02-21 15:52:00,30.7,6.3,31.34,West,270,6.0,8.0,35,0.02,,,0.09,meteohub,2013-02-21 22:52:00,
2013-02-21 15:57:00,29.5,5.7,31.34,NW,315,4.0,8.0,36,0.01,,,0.09,meteohub,2013-02-21 22:57:00,
2013-02-21 16:02:00,28.6,5.5,31.34,West,270,4.0,6.0,37,0.01,,,0.09,meteohub,2013-02-21 23:02:00,
2013-02-21 16:07:00,28.2,2.8,31.34,NW,315,4.0,6.0,33,0.01,,,0.09,meteohub,2013-02-21 23:07:00,
2013-02-21 16:12:00,27.9,3.2,31.34,West,270,5.0,5.0,34,0.01,,,0.09,meteohub,2013-02-21 23:12:00,
2013-02-21 16:17:00,27.7,3.0,31.35,West,270,7.0,7.0,34,0.01,,,0.09,meteohub,2013-02-21 23:17:00,
2013-02-21 16:22:00,27.0,2.3,31.35,West,270,3.0,8.0,34,0.01,,,0.09,meteohub,2013-02-21 23:22:00,
2013-02-21 16:27:00,26.4,3.0,31.35,NW,315,5.0,8.0,36,0.00,,,0.09,meteohub,2013-02-21 23:27:00,
2013-02-21 16:32:00,25.9,3.2,31.35,NW,315,3.0,8.0,37,0.00,,,0.09,meteohub,2013-02-21 23:32:00,
2013-02-21 16:37:00,25.2,3.2,31.35,West,270,5.0,6.0,38,0.00,,,0.09,meteohub,2013-02-21 23:37:00,
2013-02-21 16:42:00,24.4,4.1,31.35,NW,315,2.0,6.0,41,0.00,,,0.09,meteohub,2013-02-21 23:42:00,
2013-02-21 16:48:00,23.9,4.6,31.35,NW,315,0.0,6.0,43,0.00,,,0.09,meteohub,2013-02-21 23:48:00,
2013-02-21 16:53:00,23.5,4.3,31.36,East,90,4.0,5.0,43,0.00,,,0.09,meteohub,2013-02-21 23:53:00,
2013-02-21 16:59:00,22.8,4.1,31.36,NW,315,3.0,5.0,44,0.00,,,0.09,meteohub,2013-02-21 23:59:00,
2013-02-21 17:04:00,22.6,3.9,31.36,NW,315,2.0,4.0,44,0.00,,,0.09,meteohub,2013-02-22 00:04:00,
2013-02-21 17:10:00,21.4,3.4,31.36,NW,315,0.0,4.0,45,0.00,,,0.00,meteohub,2013-02-22 00:10:00,
2013-02-21 17:16:00,20.5,3.0,31.36,NE,45,3.0,3.0,46,0.00,,,0.00,meteohub,2013-02-22 00:16:00,
2013-02-21 17:21:00,19.6,2.7,31.36,West,270,4.0,4.0,47,0.00,,,0.00,meteohub,2013-02-22 00:21:00,
2013-02-21 17:27:00,18.7,0.9,31.36,NE,45,2.0,4.0,45,0.00,,,0.00,meteohub,2013-02-22 00:27:00,
2013-02-21 17:32:00,18.1,0.9,31.36,North,0,2.0,4.0,46,0.00,,,0.00,meteohub,2013-02-22 00:32:00,
2013-02-21 17:37:00,17.8,1.4,31.37,NW,315,4.0,5.0,48,0.00,,,0.00,meteohub,2013-02-22 00:37:00,
2013-02-21 17:42:00,17.4,2.8,31.37,NW,315,4.0,8.0,52,0.00,,,0.00,meteohub,2013-02-22 00:42:00,
2013-02-21 17:47:00,17.2,2.7,31.37,North,0,3.0,8.0,52,0.00,,,0.00,meteohub,2013-02-22 00:47:00,
2013-02-21 17:52:00,16.9,2.7,31.37,NW,315,2.0,8.0,53,0.00,,,0.00,meteohub,2013-02-22 00:52:00,
2013-02-21 17:57:00,16.7,2.5,31.37,NNW,338,3.0,4.0,53,0.00,,,0.00,meteohub,2013-02-22 00:57:00,
2013-02-21 18:02:00,16.3,2.1,31.38,West,270,2.0,4.0,53,0.00,,,0.00,meteohub,2013-02-22 01:02:00,
2013-02-21 18:07:00,16.0,2.3,31.38,West,270,0.0,5.0,54,0.00,,,0.00,meteohub,2013-02-22 01:07:00,
2013-02-21 18:12:00,15.8,2.1,31.39,North,0,0.0,5.0,54,0.00,,,0.00,meteohub,2013-02-22 01:12:00,
2013-02-21 18:17:00,15.3,1.9,31.39,NW,315,1.0,3.0,55,0.00,,,0.00,meteohub,2013-02-22 01:17:00,
2013-02-21 18:23:00,15.1,2.1,31.39,NW,315,3.0,6.0,56,0.00,,,0.00,meteohub,2013-02-22 01:23:00,
2013-02-21 18:28:00,14.9,2.8,31.39,WSW,248,2.0,6.0,58,0.00,,,0.00,meteohub,2013-02-22 01:28:00,
2013-02-21 18:34:00,14.7,3.0,31.39,WNW,293,0.0,4.0,59,0.00,,,0.00,meteohub,2013-02-22 01:34:00,
2013-02-21 18:39:00,14.5,3.2,31.40,SW,225,0.0,3.0,60,0.00,,,0.00,meteohub,2013-02-22 01:39:00,
2013-02-21 18:45:00,14.2,2.8,31.40,SW,225,0.0,3.0,60,0.00,,,0.00,meteohub,2013-02-22 01:45:00,
2013-02-21 18:51:00,13.6,2.7,31.40,SW,225,0.0,2.0,61,0.00,,,0.00,meteohub,2013-02-22 01:51:00,
2013-02-21 18:56:00,13.1,2.1,31.40,North,0,0.0,0.0,61,0.00,,,0.00,meteohub,2013-02-22 01:56:00,
2013-02-21 19:02:00,13.1,2.5,31.41,West,270,0.0,0.0,62,0.00,,,0.00,meteohub,2013-02-22 02:02:00,
2013-02-21 19:07:00,13.1,2.5,31.40,West,270,0.0,0.0,62,0.00,,,0.00,meteohub,2013-02-22 02:07:00,
2013-02-21 19:12:00,13.1,2.8,31.41,West,270,5.0,5.0,63,0.00,,,0.00,meteohub,2013-02-22 02:12:00,
2013-02-21 19:17:00,13.1,2.8,31.41,West,270,4.0,5.0,63,0.00,,,0.00,meteohub,2013-02-22 02:17:00,
2013-02-21 19:22:00,13.1,2.8,31.41,West,270,1.0,5.0,63,0.00,,,0.00,meteohub,2013-02-22 02:22:00,
2013-02-21 19:27:00,12.9,2.7,31.41,West,270,1.0,5.0,63,0.00,,,0.00,meteohub,2013-02-22 02:27:00,
2013-02-21 19:33:00,12.7,2.5,31.42,NW,315,0.0,4.0,63,0.00,,,0.00,meteohub,2013-02-22 02:33:00,
2013-02-21 19:38:00,12.2,1.8,31.42,SW,225,0.0,3.0,62,0.00,,,0.00,meteohub,2013-02-22 02:38:00,
2013-02-21 19:44:00,11.7,1.6,31.42,SW,225,0.0,3.0,63,0.00,,,0.00,meteohub,2013-02-22 02:44:00,
2013-02-21 19:49:00,11.3,0.9,31.42,SW,225,0.0,3.0,62,0.00,,,0.00,meteohub,2013-02-22 02:49:00,
2013-02-21 19:55:00,10.9,0.5,31.42,SSW,203,0.0,2.0,62,0.00,,,0.00,meteohub,2013-02-22 02:55:00,
2013-02-21 20:00:00,10.6,0.1,31.42,SW,225,0.0,3.0,62,0.00,,,0.00,meteohub,2013-02-22 03:00:00,
2013-02-21 20:05:00,10.4,0.0,31.42,SW,225,0.0,3.0,62,0.00,,,0.00,meteohub,2013-02-22 03:05:00,
2013-02-21 20:11:00,9.9,-2.0,31.42,SW,225,0.0,4.0,58,0.00,,,0.00,meteohub,2013-02-22 03:11:00,
2013-02-21 20:16:00,9.7,-1.8,31.42,SW,225,0.0,4.0,59,0.00,,,0.00,meteohub,2013-02-22 03:16:00,
2013-02-21 20:22:00,9.3,-2.0,31.42,SW,225,0.0,4.0,59,0.00,,,0.00,meteohub,2013-02-22 03:22:00,
2013-02-21 20:27:00,9.1,-1.8,31.43,SW,225,0.0,0.0,60,0.00,,,0.00,meteohub,2013-02-22 03:27:00,
2013-02-21 20:32:00,9.0,-1.7,31.43,SW,225,0.0,0.0,61,0.00,,,0.00,meteohub,2013-02-22 03:32:00,
2013-02-21 20:38:00,9.0,-1.7,31.43,SSW,203,2.0,0.0,61,0.00,,,0.00,meteohub,2013-02-22 03:38:00,
2013-02-21 20:43:00,9.1,-1.3,31.43,West,270,0.0,2.0,62,0.00,,,0.00,meteohub,2013-02-22 03:43:00,
2013-02-21 20:49:00,9.0,-1.5,31.44,SW,225,0.0,2.0,62,0.00,,,0.00,meteohub,2013-02-22 03:49:00,
2013-02-21 20:54:00,9.0,-1.5,31.44,West,270,0.0,2.0,62,0.00,,,0.00,meteohub,2013-02-22 03:54:00,
2013-02-21 21:00:00,9.1,-1.3,31.44,NW,315,0.0,1.0,62,0.00,,,0.00,meteohub,2013-02-22 04:00:00,
2013-02-21 21:05:00,9.1,-1.3,31.44,NW,315,0.0,0.0,62,0.00,,,0.00,meteohub,2013-02-22 04:05:00,
2013-02-21 21:10:00,9.0,-1.5,31.44,SW,225,0.0,0.0,62,0.00,,,0.00,meteohub,2013-02-22 04:10:00,
2013-02-21 21:16:00,8.6,-2.0,31.44,SW,225,0.0,0.0,61,0.00,,,0.00,meteohub,2013-02-22 04:16:00,
2013-02-21 21:22:00,8.1,-2.2,31.44,West,270,0.0,0.0,62,0.00,,,0.00,meteohub,2013-02-22 04:22:00,
2013-02-21 21:28:00,8.2,-1.8,31.44,NW,315,0.0,0.0,63,0.00,,,0.00,meteohub,2013-02-22 04:28:00,
2013-02-21 21:33:00,8.4,-1.7,31.44,West,270,0.0,0.0,63,0.00,,,0.00,meteohub,2013-02-22 04:33:00,
2013-02-21 21:39:00,8.6,-1.7,31.44,SW,225,0.0,0.0,62,0.00,,,0.00,meteohub,2013-02-22 04:39:00,
2013-02-21 21:44:00,8.2,-1.8,31.44,SW,225,0.0,0.0,63,0.00,,,0.00,meteohub,2013-02-22 04:44:00,
2013-02-21 21:50:00,7.7,-2.2,31.44,SW,225,0.0,0.0,63,0.00,,,0.00,meteohub,2013-02-22 04:50:00,
2013-02-21 21:56:00,7.3,-2.6,31.44,SW,225,0.0,0.0,63,0.00,,,0.00,meteohub,2013-02-22 04:56:00,
2013-02-21 22:00:00,7.2,-2.7,31.44,West,270,0.0,0.0,63,0.00,,,0.00,meteohub,2013-02-22 05:00:00,
2013-02-21 22:01:00,7.2,-2.7,31.44,West,270,0.0,0.0,63,0.00,,,0.00,meteohub,2013-02-22 05:01:00,
2013-02-21 22:02:00,7.2,-2.7,31.44,West,270,0.0,0.0,63,0.00,,,0.00,meteohub,2013-02-22 05:02:00,
2013-02-21 22:05:00,7.2,-2.7,31.44,West,270,0.0,0.0,63,0.00,,,0.00,meteohub,2013-02-22 05:05:00,
2013-02-21 22:10:00,7.5,-2.4,31.44,SW,225,0.0,0.0,63,0.00,,,0.00,meteohub,2013-02-22 05:10:00,
2013-02-21 22:16:00,7.3,-2.2,31.44,West,270,0.0,0.0,64,0.00,,,0.00,meteohub,2013-02-22 05:16:00,
2013-02-21 22:21:00,7.7,-2.0,31.44,SW,225,0.0,0.0,64,0.00,,,0.00,meteohub,2013-02-22 05:21:00,
2013-02-21 22:27:00,7.5,-2.0,31.44,West,270,0.0,2.0,64,0.00,,,0.00,meteohub,2013-02-22 05:27:00,
2013-02-21 22:32:00,7.5,-2.0,31.44,SW,225,0.0,2.0,64,0.00,,,0.00,meteohub,2013-02-22 05:32:00,
2013-02-21 22:37:00,7.2,-2.7,31.44,SW,225,0.0,1.0,63,0.00,,,0.00,meteohub,2013-02-22 05:37:00,
2013-02-21 22:42:00,6.8,-3.1,31.44,South,180,0.0,0.0,63,0.00,,,0.00,meteohub,2013-02-22 05:42:00,
2013-02-21 22:47:00,6.4,-3.1,31.44,South,180,0.0,0.0,64,0.00,,,0.00,meteohub,2013-02-22 05:47:00,
2013-02-21 22:52:00,6.3,-3.6,31.44,NW,315,0.0,0.0,63,0.00,,,0.00,meteohub,2013-02-22 05:52:00,
2013-02-21 22:57:00,6.1,-3.8,31.44,SW,225,0.0,0.0,63,0.00,,,0.00,meteohub,2013-02-22 05:57:00,
2013-02-21 23:02:00,5.9,-4.0,31.44,SW,225,0.0,0.0,63,0.00,,,0.00,meteohub,2013-02-22 06:02:00,
2013-02-21 23:07:00,5.9,-4.0,31.44,SW,225,0.0,0.0,63,0.00,,,0.00,meteohub,2013-02-22 06:07:00,
2013-02-21 23:12:00,5.2,-4.7,31.45,SW,225,0.0,0.0,63,0.00,,,0.00,meteohub,2013-02-22 06:12:00,
2013-02-21 23:17:00,5.0,-4.9,31.45,NW,315,0.0,0.0,63,0.00,,,0.00,meteohub,2013-02-22 06:17:00,
2013-02-21 23:22:00,5.0,-4.9,31.45,SW,225,0.0,0.0,63,0.00,,,0.00,meteohub,2013-02-22 06:22:00,
2013-02-21 23:27:00,5.0,-4.5,31.45,West,270,2.0,2.0,64,0.00,,,0.00,meteohub,2013-02-22 06:27:00,
2013-02-21 23:32:00,5.5,-4.0,31.45,West,270,0.0,2.0,64,0.00,,,0.00,meteohub,2013-02-22 06:32:00,
2013-02-21 23:37:00,6.1,-3.1,31.45,West,270,0.0,2.0,65,0.00,,,0.00,meteohub,2013-02-22 06:37:00,
2013-02-21 23:42:00,6.4,-2.7,31.45,NW,315,1.0,2.0,65,0.00,,,0.00,meteohub,2013-02-22 06:42:00,
2013-02-21 23:47:00,6.8,-2.7,31.45,West,270,0.0,2.0,64,0.00,,,0.00,meteohub,2013-02-22 06:47:00,
2013-02-21 23:52:00,6.8,-2.7,31.45,West,270,0.0,2.0,64,0.00,,,0.00,meteohub,2013-02-22 06:52:00,
2013-02-21 23:57:00,6.8,-2.7,31.45,West,270,1.0,2.0,64,0.00,,,0.00,meteohub,2013-02-22 06:57:00,